Location: Hard
(49.9417°N, 12.0858°E)
Time: 07:40:50
(UTC+00:00)

STARLINK-1256 - Pass Details

Date: 07 June 2020
Orbit: 549 x 550 km, 53.0° (Epoch: 15 July)

Event Time Altitude Azimuth Distance (km) Brightness Sun altitude
Exits shadow 00:19:22 19° 245° (WSW) 1,333 5.2 -15.7°
Maximum altitude 00:22:16 86° 157° (SSE) 547 3.5 -15.6°
Drops below altitude 10° 00:26:22 10° 69° (ENE) 1,800 6.8 -15.4°
Enters shadow 01:25:57 -64° 259° (WSW) 12,034 10.3 -11.3°
